FW6249 Weather Reports


time (UTC)temp
C
wind
direction
speed
KPH
gust
KPH
rain 1hr
cm
rain 24hr
cm
rain mn
cm
humidity
%
barometer
mb
20260510190051 27 341 1.6 6.4 0.00 0.00 0.00 42 1013.1
20260510184549 27 162 0.0 4.8 0.00 0.00 0.00 39 1013.1
20260510183050 27 0 1.6 6.4 0.00 0.00 0.00 38 1013.3
20260510181605 26 323 1.6 4.8 0.00 0.00 0.00 40 1013.4
20260510174549 26 306 1.6 4.8 0.00 0.00 0.00 39 1013.7
20260510173050 26 207 0.0 4.8 0.00 0.00 0.00 43 1013.5
20260510171550 26 165 3.2 4.8 0.00 0.00 0.00 41 1013.7
20260510170054 25 0 1.6 6.4 0.00 0.00 0.00 40 1014.0
20260510164548 25 0 0.0 1.6 0.00 0.00 0.00 44 1014.0
20260510163050 25 311 1.6 4.8 0.00 0.00 0.00 43 1014.0
20260510161546 25 0 0.0 1.6 0.00 0.00 0.00 48 1014.1
20260510160052 25 0 0.0 4.8 0.00 0.00 0.00 50 1014.2
20260510154557 24 55 0.0 4.8 0.00 0.00 0.00 47 1014.4
20260510153053 23 90 1.6 4.8 0.00 0.00 0.00 49 1014.4
20260510151547 23 0 0.0 8.0 0.00 0.00 0.00 49 1014.6
20260510150108 23 76 0.0 4.8 0.00 0.00 0.00 52 1014.5
20260510144552 22 0 0.0 3.2 0.00 0.00 0.00 54 1014.4
20260510143049 21 0 0.0 1.6 0.00 0.00 0.00 58 1014.3
20260510141548 21 0 0.0 0.0 0.00 0.00 0.00 64 1014.2
20260510140044 20 0 0.0 0.0 0.00 0.00 0.00 73 1014.1
20260510134551 20 0 0.0 3.2 0.00 0.00 0.00 72 1014.1
20260510133050 18 0 0.0 0.0 0.00 0.00 0.00 78 1014.2
20260510131549 17 0 0.0 0.0 0.00 0.00 0.00 84 1014.2
20260510130053 16 0 0.0 0.0 0.00 0.00 0.00 90 1014.0
20260510124543 15 0 0.0 0.0 0.00 0.00 0.00 95 1013.9
20260510123043 15 0 0.0 0.0 0.00 0.00 0.00 97 1013.9
20260510121542 13 0 0.0 0.0 0.00 0.00 0.00 97 1013.8
20260510120054 13 0 0.0 0.0 0.00 0.00 0.00 97 1013.6
20260510114550 12 0 0.0 0.0 0.00 0.00 0.00 97 1013.5
20260510113051 12 0 0.0 0.0 0.00 0.00 0.00 96 1013.4
20260510111601 12 0 0.0 0.0 0.00 0.00 0.00 95 1013.1
20260510110046 12 0 0.0 0.0 0.00 0.00 0.00 95 1012.9
20260510104547 12 0 0.0 0.0 0.00 0.00 0.00 95 1012.6
20260510103047 12 0 0.0 0.0 0.00 0.00 0.00 95 1012.5
20260510101546 12 0 0.0 0.0 0.00 0.00 0.00 95 1012.3
20260510100052 12 0 0.0 0.0 0.00 0.00 0.00 94 1012.0
20260510094559 12 0 0.0 0.0 0.00 0.00 0.00 94 1011.7
20260510093105 13 0 0.0 0.0 0.00 0.00 0.00 94 1011.6
20260510091547 13 0 0.0 0.0 0.00 0.00 0.00 94 1011.5
20260510090049 13 0 0.0 0.0 0.00 0.00 0.00 94 1011.5
20260510084549 13 0 0.0 0.0 0.00 0.00 0.00 93 1011.1
20260510083104 13 0 0.0 0.0 0.00 0.00 0.00 93 1011.2
20260510081548 14 0 0.0 0.0 0.00 0.00 0.00 93 1011.3
20260510080056 14 0 0.0 0.0 0.00 0.00 0.00 93 1011.1
20260510074556 15 0 0.0 0.0 0.00 0.00 0.00 92 1011.0
20260510073055 15 0 0.0 0.0 0.00 0.00 0.00 91 1011.0
20260510071550 15 0 0.0 0.0 0.00 0.00 0.00 91 1010.9
20260510070049 15 0 0.0 0.0 0.00 0.00 0.00 90 1010.8
20260510064559 15 0 0.0 1.6 0.00 0.00 0.00 89 1010.8
20260510063053 16 0 0.0 0.0 0.00 0.00 0.00 89 1010.9
20260510061555 16 0 0.0 1.6 0.00 0.00 0.00 89 1011.0
20260510060052 16 0 0.0 1.6 0.00 0.00 0.00 89 1011.1
20260510054547 16 0 0.0 1.6 0.00 0.00 0.00 87 1011.1
20260510053049 16 0 0.0 3.2 0.00 0.00 0.00 88 1011.2
20260510051600 16 257 0.0 3.2 0.00 0.00 0.00 90 1011.3
20260510050047 16 0 0.0 1.6 0.00 0.00 0.00 89 1011.4
20260510044555 15 0 0.0 3.2 0.00 0.00 0.00 90 1011.3
20260510043048 15 0 0.0 0.0 0.00 0.00 0.00 89 1011.2
20260510041544 15 0 0.0 0.0 0.00 0.00 0.00 89 1011.1
20260510040052 15 0 0.0 0.0 0.00 0.00 0.00 88 1011.1
20260510034550 15 0 0.0 0.0 0.00 0.00 0.00 88 1011.0
20260510033058 16 0 0.0 0.0 0.00 0.00 0.00 88 1010.9
20260510031547 16 0 0.0 0.0 0.00 0.00 0.00 88 1010.8
20260510030053 16 0 0.0 0.0 0.00 0.00 0.00 87 1010.8
20260510024544 16 0 0.0 0.0 0.00 0.00 0.00 86 1010.6
20260510023050 16 0 0.0 0.0 0.00 0.00 0.00 86 1010.6
20260510021548 16 0 0.0 0.0 0.00 0.00 0.00 85 1010.5
20260510020049 16 0 0.0 0.0 0.00 0.00 0.00 84 1010.3
20260510014545 16 0 0.0 0.0 0.00 0.00 0.00 83 1010.0
20260510013044 17 0 0.0 0.0 0.00 0.00 0.00 82 1010.0
20260510011549 17 0 0.0 0.0 0.00 0.00 0.00 80 1009.9
20260510010051 18 0 0.0 0.0 0.00 0.00 0.00 80 1009.8
20260510004552 18 0 0.0 0.0 0.00 0.00 0.00 77 1009.7
20260510003048 19 0 0.0 0.0 0.00 0.00 0.00 76 1009.4
20260510001543 20 0 0.0 0.0 0.00 0.00 0.00 74 1009.2
20260510000049 20 0 0.0 0.0 0.00 0.00 0.00 72 1009.1
20260509234550 21 0 0.0 0.0 0.00 0.00 0.00 70 1008.9
20260509233048 22 0 0.0 0.0 0.00 0.00 0.00 67 1008.6
20260509231549 22 0 0.0 0.0 0.00 0.00 0.00 61 1008.8
20260509230057 23 0 0.0 3.2 0.00 0.00 0.00 56 1008.6
20260509224555 23 0 0.0 3.2 0.00 0.00 0.00 54 1008.7
20260509223054 23 275 0.0 4.8 0.00 0.00 0.00 53 1008.7
20260509221553 23 242 3.2 9.7 0.00 0.00 0.00 50 1008.6
20260509220103 23 268 0.0 3.2 0.00 0.00 0.00 51 1008.4
20260509214558 23 0 0.0 4.8 0.00 0.00 0.00 53 1008.3
20260509213122 23 276 1.6 6.4 0.00 0.00 0.00 53 1008.3
20260509211553 24 228 1.6 4.8 0.00 0.00 0.00 52 1008.1
20260509210100 23 206 1.6 9.7 0.00 0.00 0.00 52 1008.2
20260509204549 23 0 1.6 4.8 0.00 0.00 0.00 57 1008.2
20260509203054 23 273 0.0 12.9 0.00 0.00 0.00 54 1008.2
20260509201548 23 279 0.0 4.8 0.00 0.00 0.00 58 1008.4
20260509200047 23 302 1.6 9.7 0.00 0.00 0.00 55 1008.5
20260509194549 22 223 1.6 4.8 0.00 0.00 0.00 56 1008.7
20260509193052 22 296 1.6 6.4 0.00 0.00 0.00 62 1009.0
20260509191551 21 0 0.0 3.2 0.00 0.00 0.00 56 1009.1